Location: Grandview
(34.8900°N, 117.1058°W)
Time: 12:33:26
(UTC-08:00)

OTV 5 (USA 277) - Pass Details

Date: 07 October 2017
Orbit: 404 x 417 km, 43.0° (Epoch: 07 September)

Event Time Altitude Azimuth Distance (km) Brightness Sun altitude
Rises 19:07:38 0° 208° (SSW) 2,338 ? -9.8°
Reaches altitude 10° 19:10:05 10° 191° (S) 1,479 ? -10.3°
Maximum altitude 19:12:37 20° 141° (SE) 1,013 ? -10.9°
Enters shadow 19:13:58 16° 110° (ESE) 1,162 ? -11.1°
